Wellington, UT

6:09 PM MDT on August 31, 2016 (GMT -0600)
Carbon County

Weather History for KPUC - August, 2014

Change the Weather History Date:

Thursday, August 28, 2014

  Actual Average Record
Temperature  
Mean Temperature 64 °F -  
Max Temperature 81 °F 80 °F 94 °F (1974)
Min Temperature 48 °F 54 °F 42 °F (1980)
Degree Days  
Heating Degree Days 1    
Growing Degree Days 14 (Base 50)    
Moisture  
Dew Point 42 °F    
Average Humidity 49    
Maximum Humidity 80    
Minimum Humidity 21    
Precipitation  
Precipitation 0.00 in - - ()
Sea Level Pressure  
Sea Level Pressure 30.10 in    
Wind  
Wind Speed 5 mph (NE)    
Max Wind Speed 10 mph    
Max Gust Speed -    
Visibility 10 miles    
Events      
Averages and records for this station are not official NWS values.
T = Trace of Precipitation, MM = Missing Value Source: NWS Daily Summary

Daily Weather History Graph

Daily Weather History Graph

Search for Another Location

Airport or City:

Trip Planner

Search our weather history database for the weather conditions in past years. The results will help you decide how hot, cold, wet, or windy it might be!

Date:

Astronomy

Aug. 28, 2014 Rise Set
Actual Time 6:47 AM MDT 8:00 PM MDT
Civil Twilight 6:19 AM MDT 8:27 PM MDT
Nautical Twilight 5:46 AM MDT 9:01 PM MDT
Astronomical Twilight 5:11 AM MDT 9:35 PM MDT
Moon 9:42 AM MDT (8/28) 9:26 PM MDT (8/28)
Length of Visible Light 14h 08m
Length of Day
13h 12m
Waxing Crescent, 9% of the Moon is Illuminated
Aug 28
Waxing Crescent
Sep 2
First Quarter
Sep 8
Full
Sep 15
Last Quarter
Sep 24
New

Hourly Weather History & Observations

Time (MDT) Temp. Dew Point Humidity Pressure Visibility Wind Dir Wind Speed Gust Speed Precip Events Conditions
12:53 AM 55.9 °F 45.0 °F 67% 30.19 in 10.0 mi NNE 4.6 mph - N/A   Mostly Cloudy
1:53 AM 54.0 °F 46.0 °F 75% 30.17 in 10.0 mi SSE 4.6 mph - N/A   Mostly Cloudy
2:53 AM 54.0 °F 45.0 °F 72% 30.17 in 10.0 mi Calm Calm - N/A   Clear
3:53 AM 51.1 °F 45.0 °F 80% 30.18 in 10.0 mi NE 5.8 mph - N/A   Clear
4:53 AM 50.0 °F 44.1 °F 80% 30.18 in 10.0 mi NNE 5.8 mph - N/A   Clear
5:53 AM 50.0 °F 44.1 °F 80% 30.19 in 10.0 mi ENE 3.5 mph - N/A   Clear
6:53 AM 48.9 °F 43.0 °F 80% 30.19 in 10.0 mi NW 3.5 mph - N/A   Clear
7:53 AM 57.0 °F 45.0 °F 64% 30.17 in 10.0 mi Calm Calm - N/A   Clear
8:53 AM 61.0 °F 45.0 °F 56% 30.16 in 10.0 mi Variable 3.5 mph - N/A   Clear
9:53 AM 63.0 °F 46.9 °F 56% 30.14 in 10.0 mi Variable 3.5 mph - N/A   Clear
10:53 AM 66.0 °F 46.9 °F 50% 30.13 in 10.0 mi Variable 3.5 mph - N/A   Clear
11:53 AM 70.0 °F 46.9 °F 44% 30.12 in 10.0 mi South 4.6 mph - N/A   Clear
12:53 PM 75.0 °F 42.1 °F 31% 30.08 in 10.0 mi Variable 6.9 mph - N/A   Clear
1:53 PM 78.1 °F 39.0 °F 25% 30.06 in 10.0 mi South 10.4 mph - N/A   Clear
2:53 PM 78.1 °F 37.0 °F 23% 30.04 in 10.0 mi Calm Calm - N/A   Mostly Cloudy
3:53 PM 78.1 °F 37.9 °F 24% 30.03 in 10.0 mi Variable 6.9 mph - N/A   Mostly Cloudy
4:53 PM 78.1 °F 39.0 °F 25% 30.02 in 10.0 mi South 6.9 mph - N/A   Mostly Cloudy
5:53 PM 80.1 °F 39.0 °F 23% 30.00 in 10.0 mi ESE 8.1 mph - N/A   Mostly Cloudy
6:53 PM 79.0 °F 36.0 °F 21% 30.00 in 10.0 mi West 10.4 mph - N/A   Scattered Clouds
7:53 PM 75.0 °F 37.9 °F 26% 29.99 in 10.0 mi NW 8.1 mph - N/A   Partly Cloudy
8:53 PM 66.9 °F 42.1 °F 40% 30.03 in 10.0 mi NNE 6.9 mph - N/A   Clear
9:53 PM 64.9 °F 42.1 °F 43% 30.05 in 10.0 mi North 3.5 mph - N/A   Partly Cloudy
10:53 PM 62.1 °F 42.1 °F 48% 30.05 in 10.0 mi North 8.1 mph - N/A   Clear
11:53 PM 61.0 °F 41.0 °F 48% 30.03 in 10.0 mi Calm Calm - N/A   Clear